TimeMDT,TemperatureF,Dew PointF,Humidity,Sea Level PressureIn,VisibilityMPH,Wind Direction,Wind SpeedMPH,Gust SpeedMPH,PrecipitationIn,Events,Conditions,WindDirDegrees,DateUTC
12:53 AM,52.0,48.9,89,29.89,10.0,WNW,6.9,-,N/A,,Partly Cloudy,290,2013-06-23 06:53:00
1:53 AM,52.0,48.9,89,29.88,10.0,West,6.9,-,N/A,,Scattered Clouds,260,2013-06-23 07:53:00
2:53 AM,50.0,48.0,93,29.90,10.0,SSW,5.8,-,N/A,,Clear,200,2013-06-23 08:53:00
3:53 AM,51.1,48.0,89,29.90,10.0,West,3.5,-,N/A,,Clear,270,2013-06-23 09:53:00
4:53 AM,50.0,48.0,93,29.89,10.0,SW,3.5,-,N/A,,Clear,220,2013-06-23 10:53:00
5:53 AM,51.1,48.0,89,29.88,10.0,SW,4.6,-,N/A,,Clear,230,2013-06-23 11:53:00
6:53 AM,54.0,50.0,86,29.88,10.0,WSW,4.6,-,0.01,,Clear,250,2013-06-23 12:53:00
7:53 AM,57.0,51.1,81,29.87,10.0,WSW,6.9,-,N/A,,Clear,240,2013-06-23 13:53:00
8:53 AM,61.0,51.1,70,29.86,10.0,West,9.2,-,N/A,,Clear,280,2013-06-23 14:53:00
9:53 AM,66.0,52.0,60,29.85,10.0,WSW,6.9,-,N/A,,Clear,240,2013-06-23 15:53:00
10:53 AM,68.0,52.0,56,29.83,10.0,WSW,10.4,-,N/A,,Clear,250,2013-06-23 16:53:00
11:53 AM,70.0,48.9,47,29.82,10.0,WSW,9.2,-,N/A,,Clear,250,2013-06-23 17:53:00
12:53 PM,72.0,48.0,43,29.81,10.0,West,5.8,-,N/A,,Partly Cloudy,260,2013-06-23 18:53:00
1:53 PM,73.9,46.9,38,29.79,10.0,SSW,9.2,-,N/A,,Clear,210,2013-06-23 19:53:00
2:53 PM,72.0,45.0,38,29.78,10.0,Variable,4.6,-,N/A,,Partly Cloudy,0,2013-06-23 20:53:00
3:53 PM,75.9,45.0,33,29.76,10.0,WSW,12.7,17.3,N/A,,Clear,240,2013-06-23 21:53:00
4:53 PM,75.9,43.0,31,29.76,10.0,West,10.4,-,N/A,,Clear,260,2013-06-23 22:53:00
5:53 PM,77.0,43.0,30,29.74,10.0,WSW,9.2,-,N/A,,Clear,240,2013-06-23 23:53:00
6:53 PM,75.9,45.0,33,29.74,10.0,SSW,5.8,-,N/A,,Clear,200,2013-06-24 00:53:00
7:53 PM,73.0,51.1,46,29.74,10.0,South,3.5,-,N/A,,Clear,170,2013-06-24 01:53:00
8:53 PM,72.0,45.0,38,29.73,10.0,SSE,3.5,-,N/A,,Clear,160,2013-06-24 02:53:00
9:53 PM,68.0,48.0,49,29.74,10.0,ESE,4.6,-,N/A,,Clear,110,2013-06-24 03:53:00
10:53 PM,62.1,51.1,67,29.74,10.0,SSE,4.6,-,N/A,,Clear,160,2013-06-24 04:53:00
11:53 PM,61.0,50.0,67,29.74,10.0,SSE,4.6,-,N/A,,Clear,160,2013-06-24 05:53:00